TimeEDT,TemperatureF,Dew PointF,Humidity,Sea Level PressureIn,VisibilityMPH,Wind Direction,Wind SpeedMPH,Gust SpeedMPH,PrecipitationIn,Events,Conditions,WindDirDegrees,DateUTC
12:51 AM,55.0,42.1,62,30.09,10.0,NNE,4.6,-,N/A,,Clear,30,2013-06-04 04:51:00
1:51 AM,54.0,39.0,57,30.09,10.0,NE,4.6,-,N/A,,Clear,50,2013-06-04 05:51:00
2:51 AM,54.0,36.0,51,30.09,10.0,NE,4.6,-,N/A,,Clear,50,2013-06-04 06:51:00
3:51 AM,53.1,37.0,55,30.10,10.0,Calm,Calm,-,N/A,,Clear,0,2013-06-04 07:51:00
4:51 AM,48.9,39.0,69,30.11,10.0,Calm,Calm,-,N/A,,Clear,0,2013-06-04 08:51:00
5:51 AM,50.0,37.9,63,30.12,10.0,Calm,Calm,-,N/A,,Clear,0,2013-06-04 09:51:00
6:51 AM,50.0,39.0,66,30.14,10.0,Calm,Calm,-,N/A,,Clear,0,2013-06-04 10:51:00
7:51 AM,54.0,41.0,62,30.15,10.0,ESE,5.8,-,N/A,,Clear,120,2013-06-04 11:51:00
8:51 AM,60.1,41.0,49,30.17,10.0,Calm,Calm,-,N/A,,Partly Cloudy,0,2013-06-04 12:51:00
9:51 AM,64.9,39.9,40,30.17,10.0,East,4.6,-,N/A,,Partly Cloudy,90,2013-06-04 13:51:00
10:51 AM,66.9,43.0,42,30.15,9.0,East,8.1,-,N/A,,Partly Cloudy,100,2013-06-04 14:51:00
11:51 AM,69.1,44.1,40,30.15,10.0,Variable,4.6,-,N/A,,Partly Cloudy,0,2013-06-04 15:51:00
12:51 PM,71.1,44.1,38,30.15,10.0,Variable,4.6,17.3,N/A,,Partly Cloudy,0,2013-06-04 16:51:00
1:51 PM,72.0,45.0,38,30.14,10.0,East,8.1,-,N/A,,Partly Cloudy,90,2013-06-04 17:51:00
2:51 PM,73.9,45.0,35,30.11,10.0,East,8.1,-,N/A,,Clear,90,2013-06-04 18:51:00
3:51 PM,73.0,45.0,37,30.11,10.0,Calm,Calm,-,N/A,,Mostly Cloudy,0,2013-06-04 19:51:00
4:51 PM,75.9,46.0,35,30.10,10.0,ENE,4.6,-,N/A,,Mostly Cloudy,70,2013-06-04 20:51:00
5:51 PM,75.0,46.9,37,30.10,10.0,East,9.2,-,N/A,,Mostly Cloudy,100,2013-06-04 21:51:00
6:51 PM,75.0,46.9,37,30.09,10.0,NE,4.6,-,N/A,,Mostly Cloudy,40,2013-06-04 22:51:00
7:51 PM,73.0,46.9,39,30.09,10.0,East,5.8,-,N/A,,Scattered Clouds,90,2013-06-04 23:51:00
8:51 PM,68.0,46.9,47,30.09,10.0,East,5.8,-,N/A,,Scattered Clouds,90,2013-06-05 00:51:00
9:51 PM,66.0,46.9,50,30.10,10.0,East,4.6,-,N/A,,Scattered Clouds,80,2013-06-05 01:51:00
10:51 PM,64.9,48.0,54,30.11,10.0,NE,5.8,-,N/A,,Scattered Clouds,40,2013-06-05 02:51:00
11:51 PM,63.0,46.0,54,30.12,10.0,NE,5.8,-,N/A,,Partly Cloudy,40,2013-06-05 03:51:00